Location: Baia Mare
(47.6567°N, 23.5850°E)
Time: 04:14:19

ISS - Pass Details

Date: 08 March 2018
Orbit: 403 x 406 km, 51.6° (Epoch: 18 March)

Event Time Altitude Azimuth Distance (km) Brightness Sun altitude
Exits shadow 05:10:16 44° 319° (NW) 572 -3.4 -18.1°
Maximum altitude 05:10:42 48° 347° (NNW) 539 -3.3 -18.0°
Drops below altitude 10° 05:13:54 10° 64° (ENE) 1,466 0.2 -17.5°
Sets 05:16:02 0° 70° (ENE) 2,327 1.7 -17.1°
